Eagle, CO

9:42 PM MST on February 18, 2018 (GMT -0700)
Eagle County Regional

Weather History for KEGE - January, 2013

Change the Weather History Date:

Thursday, January 17, 2013

  Actual Average Record
Temperature  
Mean Temperature 10 °F -  
Max Temperature 26 °F 36 °F 51 °F (1982)
Min Temperature -7 °F 7 °F -30 °F (1949)
Degree Days  
Heating Degree Days 56    
Moisture  
Dew Point -1 °F    
Average Humidity 81    
Maximum Humidity 92    
Minimum Humidity 55    
Precipitation  
Precipitation 0.00 in - - ()
Sea Level Pressure  
Sea Level Pressure 30.50 in    
Wind  
Wind Speed 2 mph (East)    
Max Wind Speed 6 mph    
Max Gust Speed -    
Visibility 10 miles    
Events      
Averages and records for this station are not official NWS values.
T = Trace of Precipitation, MM = Missing Value Source: NWS Daily Summary

Daily Weather History Graph

Daily Weather History Graph

Search for Another Location

Airport or City:

Trip Planner

Search our weather history database for the weather conditions in past years. The results will help you decide how hot, cold, wet, or windy it might be!

Date:

Astronomy

Jan. 17, 2013 Rise Set
Actual Time 7:25 AM MST 5:10 PM MST
Civil Twilight 6:56 AM MST 5:39 PM MST
Nautical Twilight 6:23 AM MST 6:12 PM MST
Astronomical Twilight 5:51 AM MST 6:45 PM MST
Moon 10:35 AM MST (1/17) No Moon Set
Length of Visible Light 10h 43m
Length of Day
9h 44m
Waxing Crescent, 38% of the Moon is Illuminated
Jan 17
Waxing Crescent
Jan 18
First Quarter
Jan 26
Full
Feb 3
Last Quarter
Feb 10
New

Hourly Weather History & Observations

Time (MST) Temp. Windchill Dew Point Humidity Pressure Visibility Wind Dir Wind Speed Gust Speed Precip Events Conditions
12:15 AM 1.4 °F -6.2 °F -2.2 °F 85% 30.50 in 10.0 mi ESE 3.5 mph - N/A   Clear
12:35 AM 1.4 °F - -2.2 °F 85% 30.51 in 10.0 mi Calm Calm - N/A   Clear
12:55 AM -0.4 °F -8.3 °F -2.2 °F 92% 30.52 in 10.0 mi East 3.5 mph - N/A   Clear
1:15 AM -0.4 °F -8.3 °F -2.2 °F 92% 30.52 in 10.0 mi East 3.5 mph - N/A   Clear
1:35 AM -0.4 °F -8.3 °F -2.2 °F 92% 30.52 in 10.0 mi East 3.5 mph - N/A   Clear
1:55 AM -0.4 °F -8.3 °F -2.2 °F 92% 30.53 in 10.0 mi East 3.5 mph - N/A   Clear
2:35 AM -2.2 °F - -5.8 °F 85% 30.53 in 10.0 mi Calm Calm - N/A   Clear
2:55 AM -2.2 °F - -5.8 °F 85% 30.53 in 10.0 mi Calm Calm - N/A   Clear
3:15 AM -2.2 °F - -5.8 °F 85% 30.53 in 10.0 mi Calm Calm - N/A   Clear
3:35 AM -2.2 °F -12.5 °F -5.8 °F 85% 30.53 in 10.0 mi East 4.6 mph - N/A   Clear
3:55 AM -4.0 °F -16.3 °F -7.6 °F 85% 30.53 in 10.0 mi East 5.8 mph - N/A   Clear
4:15 AM -2.2 °F -14.2 °F -5.8 °F 85% 30.53 in 10.0 mi ESE 5.8 mph - N/A   Clear
4:35 AM -2.2 °F - -5.8 °F 85% 30.54 in 10.0 mi Calm Calm - N/A   Clear
4:55 AM -4.0 °F - -7.6 °F 85% 30.54 in 10.0 mi Calm Calm - N/A   Clear
5:15 AM -4.0 °F - -7.6 °F 85% 30.54 in 10.0 mi Calm Calm - N/A   Clear
5:35 AM -5.8 °F - -9.4 °F 84% 30.54 in 10.0 mi Calm Calm - N/A   Clear
5:55 AM -5.8 °F - -9.4 °F 84% 30.54 in 10.0 mi Calm Calm - N/A   Clear
6:15 AM -5.8 °F -16.7 °F -9.4 °F 84% 30.55 in 10.0 mi East 4.6 mph - N/A   Clear
6:35 AM -5.8 °F -14.5 °F -9.4 °F 84% 30.55 in 10.0 mi ESE 3.5 mph - N/A   Clear
6:50 AM -5.8 °F - -9.4 °F 84% 30.56 in 10.0 mi Calm Calm - N/A   Partly Cloudy
7:50 AM -7.6 °F - -9.4 °F 92% 30.58 in 10.0 mi Calm Calm - N/A   Partly Cloudy
8:50 AM -2.2 °F - -7.6 °F 78% 30.59 in 10.0 mi Calm Calm - N/A   Partly Cloudy
9:50 AM 1.4 °F - -4.0 °F 78% 30.59 in 10.0 mi Calm Calm - N/A   Partly Cloudy
10:50 AM 10.4 °F - 1.4 °F 67% 30.56 in 10.0 mi Calm Calm - N/A   Partly Cloudy
12:59 PM 17.6 °F - 8.6 °F 68% 30.46 in 10.0 mi Calm Calm - N/A   Partly Cloudy
1:53 PM 21.2 °F - 10.4 °F 63% 30.43 in 10.0 mi Calm Calm - N/A   Partly Cloudy
2:53 PM 24.8 °F - 12.2 °F 59% 30.41 in 10.0 mi Calm Calm - N/A   Clear
3:50 PM 26.6 °F - 12.2 °F 55% 30.41 in 10.0 mi Calm Calm - N/A   Clear
4:50 PM 26.6 °F - 12.2 °F 55% 30.41 in 10.0 mi Calm Calm - N/A   Clear
5:51 PM 19.4 °F - 10.4 °F 68% 30.42 in 10.0 mi Calm Calm - N/A   Clear
6:50 PM 14.0 °F - 8.6 °F 79% 30.44 in 10.0 mi Calm Calm - N/A   Clear
7:50 PM 10.4 °F 2.2 °F 6.8 °F 85% 30.44 in 10.0 mi ESE 4.6 mph - N/A   Clear
8:50 PM 8.6 °F - 3.2 °F 79% 30.44 in 10.0 mi Calm Calm - N/A   Clear
9:50 PM 6.8 °F -3.5 °F 3.2 °F 85% 30.45 in 10.0 mi East 5.8 mph - N/A   Clear
10:50 PM 5.0 °F - 1.4 °F 85% 30.45 in 10.0 mi Calm Calm - N/A   Clear
11:15 PM 5.0 °F - 1.4 °F 85% 30.45 in 10.0 mi Calm Calm - N/A   Clear
11:35 PM 3.2 °F - 1.4 °F 92% 30.45 in 10.0 mi Calm Calm - N/A   Clear
11:55 PM 3.2 °F - -0.4 °F 85% 30.45 in 10.0 mi Calm Calm - N/A   Clear